« Back
NWS Peachtree City, Ga » Text Product » GA Regional Weather Roundup


Printer-friendly Version
Current Version              Previous Versions:   1  2  3  4  5  6  7  8  9  

Regional Weather Roundup

899
ASUS42 KFFC 161303
RWRGA
WEATHER ROUNDUP FOR GEORGIA
NATIONAL WEATHER SERVICE PEACHTREE CITY GA
900 AM EDT TUE SEP 16 2014

NOTE: "FAIR" INDICATES FEW OR NO CLOUDS BELOW 12,000 FEET WITH NO
SIGNIFICANT WEATHER AND/OR OBSTRUCTIONS TO VISIBILITY.

* = USE WITH CAUTION. THE STATIONS MARKED WITH AN ASTERISK MAY NOT
REPORT WEATHER SUCH AS PRECIPITATION, FOG, OR THUNDER AND ARE NOT
QUALITY CONTROLLED BY NWS.

THE REMARK "TC" DENOTES TEMPERATURE READING IN DEGREES CELSIUS.

GAZ001>058-161400-
NORTH GEORGIA

CITY           SKY/WX    TMP DP  RH WIND       PRES   REMARKS
ATLANTA        FOG       73  71  93 NW8       30.10F VSB 1/2
ATHENS         PTSUNNY   73  71  93 W3        30.09F
CHAMBLEE       PTSUNNY   74  70  87 MISG      30.11S FOG
PEACHTREE CITY CLOUDY    72  72 100 NW6       30.11S FOG
ROME           CLOUDY    72  70  93 N3        30.11R FOG
WEST ATLANTA   PTSUNNY   73  70  90 CALM      30.11S
GAINESVILLE    PTSUNNY   72  69  90 W7        30.13S FOG
CARTERSVILLE   CLOUDY    72  70  93 CALM      30.11F FOG


CITY           SKY/WX    TMP DP  RH WIND       PRES   REMARKS
DALTON*        CLOUDY    70  70 100 CALM      30.11F FOG
LAWRENCEVILLE* MOSUNNY   72  64  78 CALM      30.11R FOG
MARIETTA       CLOUDY    73  72  94 W6        30.11F FOG
KENNESAW*      CLOUDY    72  68  88 W8        30.12F FOG
$$

GAZ059>098-102>109-161400-
CENTRAL GEORGIA

CITY           SKY/WX    TMP DP  RH WIND       PRES   REMARKS
AUGUSTA-BUSH   LGT RAIN  74  72  93 N5        30.05S FOG
AUGUSTA-DANIEL CLOUDY    74  72  93 CALM      30.07S
COLUMBUS       CLOUDY    74  72  93 CALM      30.07S
MACON          CLOUDY    73  73 100 CALM      30.07F FOG
ROBINS AFB     CLOUDY    74  72  94 N2        30.08R


CITY           SKY/WX    TMP DP  RH WIND       PRES   REMARKS
LAGRANGE*      CLOUDY    76  75  99 N3        30.10R FOG
SYLVANIA*      CLOUDY    75  74  99 CALM      30.07F FOG
$$

GAZ099>101-110>166-161400-
SOUTH GEORGIA

CITY           SKY/WX    TMP DP  RH WIND       PRES   REMARKS
SAVANNAH       CLOUDY    76  73  91 NW5       30.06F FOG
VALDOSTA       CLOUDY    75  74  96 CALM      30.07S THUNDER FOG
ALMA           CLOUDY    74  72  93 CALM      30.07S
ST SIMONS      PTSUNNY   76  73  91 W8        30.07R
FT STEWART     PTSUNNY   75  72  88 NW3       30.05F
ALBANY         CLOUDY    78  75  90 CALM      30.09R
HUNTER AFB     CLOUDY    75  75 100 W5        30.05S
MOODY AFB      CLOUDY    74  73  96 E2        30.08R THUNDER
BRUNSWICK      CLOUDY    75  72  88 W3        30.08R


CITY           SKY/WX    TMP DP  RH WIND       PRES   REMARKS
BAINBRIDGE*    CLOUDY    79  77  94 CALM      30.07S FOG
MOULTRIE*      CLOUDY    77  77 100 CALM      30.08S THUNDER FOG
VIDALIA*       CLOUDY    73  73 100 CALM      30.07F FOG
WAYCROSS*      CLOUDY    78  77  98 CALM      30.07S
DOUGLAS*       CLOUDY    77  73  88 CALM      30.08F
$$



USA.gov is the U.S. government's official web portal to all federal, state and local government web resources and services.